Location: Chuathbaluk
(61.5726°N, 159.2454°W)
Time: 13:18:27
(UTC+00:00)

NOAA 15 - Pass Details

Date: 20 January 2021
Orbit: 798 x 812 km, 98.7° (Epoch: 01 March)

Event Time Altitude Azimuth Distance (km) Brightness Sun altitude
Rises 06:07:18 0° 195° (SSW) 3,304 7.9 -27.0°
Reaches altitude 10° 06:09:53 10° 206° (SSW) 2,379 7.2 -27.3°
Maximum altitude 06:14:30 31° 268° (W) 1,399 6.4 -27.8°
Drops below altitude 10° 06:19:11 10° 329° (NNW) 2,401 7.5 -28.4°
Sets 06:21:49 0° 340° (NNW) 3,339 8.2 -28.7°
